[[{"header":{"parameterUnit":"m.s-1","parameterCategory":1,"la1":30.2991,"la2":30.254,"lo1":-89.0895,"lo2":-89.0444,"dy":0.0017,"dx":0.0017,"nx":28,"ny":28,"refTime":"2023-05-26T21:00:00:Z","depth":0,"parameterNumber":2,"parameterNumberName":"U-component_of_WINDS"},"data":[0,0,0,0,0,0,0,0,0,0,0,0,0,0,0,0,0,0,0,0,0,0,0,0,0,0,0,0,0,0,0,0,0,0,0,0,0,0,0,0,0,0,0,0,0,0,0,0,0,0,0,0,0,0,0,0,0,0,-6.0785,-6.0785,0,-6.0762,-6.0762,-6.0762,-6.0604,-6.0601,-6.0597,-6.0593,-6.0571,-6.0574,-6.0577,0,0,0,0,0,0,0,0,0,0,0,0,0,-6.0694,-6.0696,-6.0785,-6.0785,-6.0784,-6.0762,-6.0762,-6.0762,-6.0605,-6.06,-6.0596,-6.0591,-6.057,-6.0574,-6.0577,0,0,0,0,0,0,0,0,0,0,0,0,0,-6.0709,-6.0697,-6.0785,-6.0703,-6.0696,-6.0762,-6.0762,-6.0762,-6.0606,-6.06,-6.0594,-6.0589,-6.0569,-6.0574,-6.0578,-6.0721,0,0,-6.0592,-6.0594,0,0,0,0,0,0,0,0,-6.0708,-6.0712,-6.0716,-6.0709,-6.0701,-6.068,-6.0722,-6.0748,-6.0608,-6.064,-6.0593,-6.0586,-6.0612,-6.0613,-6.0621,-6.072,-6.0719,-6.0592,-6.0595,-6.0597,-6.0598,0,0,0,0,0,0,0,-6.0707,-6.0712,-6.0776,-6.0716,-6.0707,-6.0669,-6.0664,-6.0726,-6.0659,-6.0637,-6.0625,-6.0625,-6.0607,-6.0617,-6.062,-6.0719,-6.0592,-6.0596,-6.0599,-6.0601,-6.0936,-6.0942,0,0,0,0,0,0,-6.0717,-6.0712,-6.0776,-6.0775,-6.069,-6.0675,-6.067,-6.0693,-6.0658,-6.0647,-6.063,-6.0618,-6.0613,-6.0615,-6.0618,-6.0784,-6.0597,-6.0601,-6.0604,-6.093,-6.0937,-6.0944,0,0,0,0,0,0,-6.0716,-6.0725,-6.0777,-6.0741,-6.0744,-6.0683,-6.0709,-6.0695,-6.0705,-6.0652,-6.064,-6.0653,-6.0608,-6.0612,-6.0697,-6.0781,-6.0603,-6.0607,-6.0922,-6.0932,-6.094,-6.1118,0,0,0,0,0,0,-6.0714,-6.0725,-6.0778,-6.0743,-6.0747,-6.0857,-6.0714,-6.0699,-6.0713,-6.0697,-6.067,-6.066,-6.0604,-6.0691,-6.0702,-6.0784,-6.0611,-6.0914,-6.0927,-6.0937,-6.1104,-6.1132,-6.1156,0,0,0,0,0,-6.0711,-6.0829,-6.0782,-6.079,-6.0812,-6.0862,-6.0864,-6.0796,-6.0721,-6.0774,-6.0741,-6.0661,-6.0771,-6.0701,-6.0712,-6.0797,-6.0909,-6.0923,-6.0937,-6.1092,-6.1126,-6.1155,0,0,0,0,0,0,-6.0875,-6.0823,-6.077,-6.088,-6.0876,-6.0835,-6.09,-6.0834,-6.0852,-6.0836,-6.0752,-6.0747,-6.0845,-6.0829,-6.0753,-6.0935,-6.0826,-6.0843,-6.0941,-6.0973,-6.0998,-6.1,-6.0614,0,0,0,0,0,-6.0925,-6.0969,-6.092,-6.1022,-6.1023,-6.0963,-6.0981,-6.093,-6.0923,-6.0921,-6.0893,-6.089,-6.0923,-6.0947,-6.0975,-6.1101,-6.1094,-6.1165,-6.1191,-6.1213,-6.1228,-6.1294,-6.1326,-6.099,-6.0989,-6.0989,0,0,-6.1026,-6.1003,-6.1036,-6.1054,-6.1046,-6.1094,-6.0962,-6.1018,-6.1053,-6.0929,-6.1007,-6.0988,-6.0979,-6.1086,-6.1131,-6.1075,-6.1319,-6.123,-6.1248,-6.1251,-6.1312,-6.1344,-6.1372,-6.0999,-6.0997,-6.0996,0,0,-6.1236,-6.1223,-6.1306,-6.13,-6.1289,-6.1248,-6.1269,-6.1238,-6.122,-6.1297,-6.1206,-6.1247,-6.1306,-6.1304,-6.131,-6.1522,-6.145,-6.1534,-6.1668,-6.1734,-6.1761,-6.1784,-6.186,-6.1888,-6.1549,-6.155,-6.155,0,-6.1363,-6.1432,-6.1357,-6.142,-6.1431,-6.1321,-6.1406,-6.1404,-6.1403,-6.1414,-6.1352,-6.1425,-6.1411,-6.1516,-6.1568,-6.1577,-6.1598,-6.1536,-6.1763,-6.1785,-6.1806,-6.1877,-6.1906,-6.156,-6.1559,-6.1558,-6.1557,0,-6.159,-6.1639,-6.1708,-6.1709,-6.1728,-6.1802,-6.1739,-6.1768,-6.1715,-6.1682,-6.1763,-6.1743,-6.1765,-6.1787,-6.1736,-6.1885,-6.1851,-6.1778,-6.1667,-6.1849,-6.1915,-6.1942,-6.1574,-6.1571,-6.1568,-6.1565,0,0,-6.19,-6.1861,-6.1888,-6.1888,-6.1868,-6.1905,-6.1975,-6.1996,-6.2023,-6.2027,-6.2083,-6.2137,-6.2069,-6.2077,-6.2025,-6.2083,-6.2252,-6.2001,-6.2,-6.2049,-6.2417,-6.2472,-6.2505,-6.2205,-6.221,-6.2214,-6.2418,0,-6.2102,-6.2217,-6.2153,-6.2277,-6.2322,-6.222,-6.228,-6.2275,-6.2246,-6.2281,-6.2248,-6.2288,-6.2195,-6.22,-6.2252,-6.2221,-6.2325,-6.2205,-6.2257,-6.226,-6.2262,-6.2539,-6.2598,-6.2791,-6.2443,-6.2447,-6.245,0,-6.2351,-6.2366,-6.2495,-6.2468,-6.2485,-6.254,-6.2556,-6.259,-6.2583,-6.2558,-6.2568,-6.2503,-6.2569,-6.2461,-6.2553,-6.2473,-6.249,-6.2478,-6.2484,-6.2486,-6.2366,-6.2549,-6.2851,-6.288,-6.249,-6.2487,-6.2484,0,-6.2565,-6.2618,-6.2702,-6.2705,-6.2676,-6.2717,-6.2707,-6.2694,-6.2712,-6.2727,-6.2737,-6.276,-6.2772,-6.2791,-6.2734,-6.266,-6.2834,-6.272,-6.2815,-6.2817,-6.2856,-6.2854,-6.3165,-6.2868,-6.2868,-6.2867,-6.2867,0,-6.2797,-6.288,-6.2798,-6.2849,-6.294,-6.2866,-6.2958,-6.2937,-6.2927,-6.2974,-6.2887,-6.2933,-6.2854,-6.2893,-6.2848,-6.2932,-6.2938,-6.292,-6.2907,-6.2927,-6.293,-6.2937,-6.2922,-6.2875,-6.2873,-6.2872,-6.287,0,-6.305,-6.2999,-6.3084,-6.305,-6.3043,-6.3112,-6.3083,-6.313,-6.3095,-6.3156,-6.3166,-6.3112,-6.3153,-6.3098,-6.3133,-6.3103,-6.3217,-6.3184,-6.322,-6.321,-6.3308,-6.33,-6.3635,-6.3675,-6.3353,-6.3357,-6.3359,0,-6.3201,-6.3263,-6.3236,-6.3261,-6.3256,-6.3297,-6.3315,-6.3246,-6.3268,-6.3266,-6.3314,-6.3347,-6.337,-6.3441,-6.3405,-6.3432,-6.3399,-6.3515,-6.3402,-6.3422,-6.3401,-6.3398,-6.3404,-6.3538,-6.3541,-6.3545,-6.3547,0,-6.3474,-6.3446,-6.3475,-6.3496,-6.352,-6.3534,-6.354,-6.3566,-6.3494,-6.3524,-6.3564,-6.3582,-6.3619,-6.3653,-6.3671,-6.3661,-6.3593,-6.3583,-6.3606,-6.3628,-6.3646,-6.3637,-6.3282,-6.3575,-6.3572,-6.357,-6.3569,-6.3568,-6.368,-6.3731,-6.372,-6.3756,-6.3754,-6.3763,-6.3806,-6.3778,-6.381,-6.3834,-6.3792,-6.3844,-6.3837,-6.3854,-6.3852,-6.3892,-6.3842,-6.3876,-6.3884,-6.3894,-6.3909,-6.364,-6.3895,-6.3894,-6.3893,-6.3893,-6.3892,0,-6.3949,-6.3938,-6.3971,-6.3984,-6.4013,-6.3946,-6.3951,-6.398,-6.4026,-6.4026,-6.405,-6.4098,-6.4132,-6.41,-6.4128,-6.4166,-6.4136,-6.4176,-6.4172,-6.4171,-6.3952,-6.3929,-6.42,-6.42,-6.42,-6.42,-6.42,-6.42,-6.4092,-6.4174,-6.4145,-6.4226,-6.4214,-6.4264,-6.4273,-6.4281,-6.428,-6.4337,-6.4365,-6.4344,-6.4331,-6.4357,-6.4386,-6.4376,-6.439,-6.4442,-6.4421,-6.4217,-6.4186,-6.4158,-6.4135,-6.4445,-6.4446,-6.4636,-6.4638,-6.4639]},{"header":{"parameterUnit":"m.s-1","parameterCategory":1,"la1":30.2991,"la2":30.254,"lo1":-89.0895,"lo2":-89.0444,"dy":0.0017,"dx":0.0017,"nx":28,"ny":28,"refTime":"2023-05-26T21:00:00:Z","depth":0,"parameterNumber":3,"parameterNumberName":"V-component_of_WINDS"},"data":[0,0,0,0,0,0,0,0,0,0,0,0,0,0,0,0,0,0,0,0,0,0,0,0,0,0,0,0,0,0,0,0,0,0,0,0,0,0,0,0,0,0,0,0,0,0,0,0,0,0,0,0,0,0,0,0,0,0,-0.4438,-0.4438,0,-0.4494,-0.4495,-0.4495,-0.4498,-0.4497,-0.4496,-0.4496,-0.4557,-0.4559,-0.4561,0,0,0,0,0,0,0,0,0,0,0,0,0,-0.4334,-0.4336,-0.4438,-0.4438,-0.4439,-0.4494,-0.4495,-0.4496,-0.4498,-0.4497,-0.4496,-0.4495,-0.4556,-0.4559,-0.4561,0,0,0,0,0,0,0,0,0,0,0,0,0,-0.4384,-0.4337,-0.4438,-0.4447,-0.4448,-0.4494,-0.4495,-0.4496,-0.4498,-0.4497,-0.4496,-0.4495,-0.4555,-0.4558,-0.4562,-0.4603,0,0,-0.4572,-0.4574,0,0,0,0,0,0,0,0,-0.4381,-0.4388,-0.4445,-0.4446,-0.4448,-0.4488,-0.4481,-0.4532,-0.4498,-0.4479,-0.4496,-0.4495,-0.4535,-0.454,-0.4553,-0.4606,-0.4608,-0.4572,-0.4574,-0.4576,-0.4577,0,0,0,0,0,0,0,-0.4377,-0.4385,-0.446,-0.4446,-0.4448,-0.4449,-0.4455,-0.449,-0.4512,-0.4481,-0.4481,-0.4488,-0.4536,-0.4549,-0.4554,-0.4609,-0.4572,-0.4575,-0.4577,-0.4579,-0.4698,-0.4699,0,0,0,0,0,0,-0.4372,-0.4382,-0.4458,-0.4462,-0.4411,-0.4451,-0.4458,-0.4476,-0.4512,-0.4516,-0.4488,-0.4487,-0.4544,-0.455,-0.4556,-0.4606,-0.4576,-0.4579,-0.4581,-0.4697,-0.4698,-0.4699,0,0,0,0,0,0,-0.437,-0.4379,-0.4456,-0.4422,-0.4432,-0.4454,-0.4475,-0.4478,-0.4492,-0.4517,-0.4522,-0.4498,-0.4544,-0.4552,-0.4591,-0.4609,-0.4581,-0.4584,-0.4695,-0.4697,-0.4699,-0.4707,0,0,0,0,0,0,-0.4367,-0.4378,-0.4393,-0.4422,-0.4434,-0.4489,-0.4476,-0.448,-0.4497,-0.4496,-0.4528,-0.4532,-0.4543,-0.4586,-0.4594,-0.4613,-0.4586,-0.4694,-0.4696,-0.4698,-0.4706,-0.4709,-0.4712,0,0,0,0,0,-0.4363,-0.4395,-0.4394,-0.4403,-0.4454,-0.449,-0.4497,-0.4508,-0.4498,-0.4515,-0.4531,-0.4531,-0.4605,-0.459,-0.4599,-0.4619,-0.4693,-0.4696,-0.4698,-0.4704,-0.4708,-0.4712,0,0,0,0,0,0,-0.4369,-0.4399,-0.4399,-0.444,-0.4462,-0.449,-0.4511,-0.4512,-0.4539,-0.4537,-0.4551,-0.4558,-0.4597,-0.4612,-0.4594,-0.466,-0.4648,-0.4653,-0.4649,-0.4654,-0.4657,-0.4653,-0.4589,0,0,0,0,0,-0.4374,-0.4401,-0.4426,-0.446,-0.4471,-0.4489,-0.4506,-0.4512,-0.4536,-0.4546,-0.4565,-0.4589,-0.4618,-0.4636,-0.4664,-0.4707,-0.4714,-0.4725,-0.4729,-0.4731,-0.4735,-0.4759,-0.4764,-0.4708,-0.4708,-0.4708,0,0,-0.4388,-0.4407,-0.4423,-0.4462,-0.448,-0.4507,-0.4497,-0.4527,-0.4548,-0.4551,-0.4589,-0.4603,-0.4631,-0.4672,-0.4691,-0.4686,-0.4752,-0.4735,-0.4736,-0.4739,-0.4762,-0.4767,-0.4772,-0.471,-0.4709,-0.4709,0,0,-0.4425,-0.4443,-0.4473,-0.449,-0.4517,-0.4528,-0.4535,-0.4563,-0.4572,-0.461,-0.4613,-0.4638,-0.4687,-0.4706,-0.4722,-0.4765,-0.4766,-0.4774,-0.4791,-0.4814,-0.4818,-0.4822,-0.4838,-0.4843,-0.4777,-0.4777,-0.4777,0,-0.4439,-0.4479,-0.4489,-0.4518,-0.4535,-0.4537,-0.4567,-0.4584,-0.4619,-0.4631,-0.4624,-0.4684,-0.4703,-0.4749,-0.4759,-0.4772,-0.4781,-0.4771,-0.4817,-0.4821,-0.4825,-0.484,-0.4845,-0.4778,-0.4778,-0.4778,-0.4778,0,-0.4494,-0.4522,-0.4543,-0.4575,-0.4594,-0.4624,-0.4638,-0.4657,-0.4661,-0.4673,-0.4711,-0.4733,-0.4765,-0.4776,-0.4782,-0.4822,-0.4818,-0.4814,-0.4802,-0.4831,-0.4845,-0.4851,-0.4779,-0.4779,-0.4779,-0.4778,0,0,-0.4539,-0.4574,-0.4582,-0.4595,-0.4624,-0.4646,-0.4676,-0.4706,-0.4721,-0.4745,-0.477,-0.481,-0.4806,-0.4824,-0.4831,-0.4851,-0.4883,-0.4844,-0.4845,-0.4851,-0.4929,-0.4933,-0.4939,-0.4884,-0.4885,-0.4886,-0.4927,0,-0.458,-0.4632,-0.464,-0.4686,-0.4712,-0.4713,-0.4739,-0.476,-0.4772,-0.4796,-0.4809,-0.4837,-0.4829,-0.484,-0.486,-0.4875,-0.4899,-0.4872,-0.4908,-0.491,-0.4902,-0.4947,-0.4951,-0.4989,-0.4933,-0.4934,-0.4934,0,-0.4636,-0.4659,-0.4707,-0.473,-0.4742,-0.4765,-0.4792,-0.4815,-0.4838,-0.4845,-0.4864,-0.4868,-0.49,-0.4885,-0.4928,-0.491,-0.4925,-0.4934,-0.4936,-0.4941,-0.4924,-0.4953,-0.5002,-0.5008,-0.4943,-0.4942,-0.4942,0,-0.4664,-0.4707,-0.4741,-0.4753,-0.4781,-0.4797,-0.481,-0.4832,-0.4849,-0.4873,-0.4884,-0.4911,-0.4927,-0.4948,-0.496,-0.4948,-0.5002,-0.4989,-0.501,-0.501,-0.5022,-0.5022,-0.5075,-0.5031,-0.5031,-0.503,-0.503,0,-0.4709,-0.4739,-0.4754,-0.4775,-0.4808,-0.4816,-0.4849,-0.4862,-0.4881,-0.4904,-0.4907,-0.493,-0.4943,-0.4968,-0.4977,-0.5012,-0.5019,-0.5026,-0.5028,-0.5026,-0.5025,-0.5037,-0.5035,-0.5032,-0.5032,-0.5031,-0.5031,0,-0.4747,-0.4758,-0.4795,-0.4818,-0.4824,-0.4848,-0.4868,-0.4888,-0.4899,-0.4929,-0.4937,-0.4954,-0.4983,-0.4996,-0.5032,-0.5038,-0.5078,-0.5078,-0.507,-0.5071,-0.5091,-0.5089,-0.5154,-0.5163,-0.5112,-0.5113,-0.5113,0,-0.4775,-0.4798,-0.4822,-0.4838,-0.4851,-0.4876,-0.4892,-0.4902,-0.4919,-0.4946,-0.4963,-0.4992,-0.5015,-0.5061,-0.5078,-0.5105,-0.5106,-0.5127,-0.5111,-0.5108,-0.5107,-0.5106,-0.5108,-0.5131,-0.5131,-0.5132,-0.5132,0,-0.4825,-0.4829,-0.4852,-0.4877,-0.4896,-0.4917,-0.4937,-0.4949,-0.4962,-0.4981,-0.501,-0.5028,-0.5064,-0.5092,-0.512,-0.5134,-0.5135,-0.5137,-0.5143,-0.5142,-0.5136,-0.5139,-0.5078,-0.5135,-0.5135,-0.5135,-0.5135,-0.5135,-0.4859,-0.4879,-0.4899,-0.4924,-0.494,-0.4958,-0.4978,-0.4991,-0.5014,-0.5043,-0.5047,-0.5078,-0.51,-0.5137,-0.5152,-0.5176,-0.5172,-0.5181,-0.5183,-0.5185,-0.5187,-0.5131,-0.5182,-0.5181,-0.5181,-0.5181,-0.5181,0,-0.4909,-0.4922,-0.4945,-0.4972,-0.4992,-0.4989,-0.5011,-0.5028,-0.5054,-0.5074,-0.5096,-0.5129,-0.5156,-0.5173,-0.5201,-0.5217,-0.5218,-0.5224,-0.5223,-0.5227,-0.5189,-0.5181,-0.5223,-0.5223,-0.5223,-0.5223,-0.5222,-0.5222,-0.4938,-0.497,-0.4976,-0.5017,-0.5029,-0.5058,-0.5071,-0.5087,-0.5103,-0.5138,-0.516,-0.5171,-0.519,-0.5218,-0.5243,-0.5248,-0.5258,-0.5264,-0.5268,-0.5234,-0.5229,-0.5225,-0.5218,-0.5266,-0.5266,-0.5304,-0.5304,-0.5304]}]]